Location: *
(42.5628°N, 2.3633°E)
Time: 02:24:11
(UTC+00:00)

Cosmos 1992 Rocket - Pass Details

Date: 30 March 2020
Orbit: 759 x 766 km, 74.0° (Epoch: 05 June)

Event Time Altitude Azimuth Distance (km) Brightness Sun altitude
Rises 20:24:40 0° 339° (NNW) 3,229 8.0 -23.4°
Reaches altitude 10° 20:27:03 10° 339° (NNW) 2,298 7.1 -23.8°
Maximum altitude 20:32:16 85° 251° (WSW) 767 3.9 -24.6°
Enters shadow 20:33:03 65° 172° (S) 833 3.9 -24.7°
